DateTimeUTC,F1_A11,F1_S11,BsB_S11,BsG_S11,BsR_S11,BbsB_S11,BbsG_S11,BbsR_S11,BaB_A11,BaG_A11,BaR_A11,Tu_S11,T_S11,Uu_S11,U_S11,P_S11,T1_A11
2021-07-18T03:00:00Z,00000200,20000000,,,,,,,-000.10,-000.17,-000.26,18.1,24.7,09.2,06.1,0674.2,31.0
2021-07-18T03:01:00Z,00000200,20000000,,,,,,,-000.24,-000.24,-000.03,18.1,24.7,09.1,06.1,0674.2,31.0
2021-07-18T03:02:00Z,00000200,20000000,,,,,,,-000.05,0000.13,0000.21,18.1,24.7,09.1,06.1,0674.2,31.0
2021-07-18T03:03:00Z,00000200,60000000,,,,,,,0000.55,0000.54,0000.27,18.1,24.7,09.1,06.1,0674.2,31.0
2021-07-18T03:04:00Z,00000200,40000000,0003.23,0001.60,0000.99,0000.51,0000.08,0000.47,0000.69,0000.34,0000.24,18.1,24.5,09.3,06.3,0675.1,31.0
2021-07-18T03:05:00Z,00000200,00000000,0003.00,0001.78,0000.80,0000.98,0000.28,0000.23,0000.58,0000.68,0000.50,18.1,24.4,09.3,06.3,0675.1,31.0
2021-07-18T03:06:00Z,00000200,00000000,0002.91,0002.01,0000.83,0000.90,0000.24,0000.13,0000.58,0000.44,0000.42,18.2,24.4,09.3,06.3,0675.1,31.0
2021-07-18T03:07:00Z,00000200,00000000,0003.43,0001.76,0000.90,0000.57,0000.64,0000.29,-000.08,0000.48,0000.10,18.2,24.5,09.2,06.3,0675.1,31.0
2021-07-18T03:08:00Z,00000200,00000000,0002.50,0001.84,0001.04,0000.15,0000.51,0000.33,0000.70,0000.44,0000.59,18.3,24.5,09.2,06.3,0675.1,31.0
2021-07-18T03:09:00Z,00000200,00000000,0002.57,0001.79,0001.26,0000.53,0000.60,0000.50,0000.63,0000.41,0000.46,18.3,24.5,09.3,06.4,0675.1,31.0
2021-07-18T03:10:00Z,00000200,00000000,0002.82,0001.78,0000.98,0000.25,0000.09,0000.34,0000.23,0000.40,-000.15,18.3,24.5,09.3,06.3,0675.1,31.0
2021-07-18T03:11:00Z,00000200,00000000,0002.23,0001.96,0000.79,0000.76,0000.35,-000.04,0000.45,0000.04,0000.53,18.3,24.5,09.2,06.3,0675.1,31.0
2021-07-18T03:12:00Z,00000200,00000000,0002.11,0001.95,0001.17,0000.73,0000.22,-000.01,0000.54,0000.39,0000.06,18.3,24.5,09.2,06.3,0675.1,31.0
2021-07-18T03:13:00Z,00000200,00000000,0003.32,0001.87,0001.30,0000.51,0000.74,0000.22,0000.38,0000.70,0000.62,18.2,24.5,09.2,06.3,0675.1,31.0
2021-07-18T03:14:00Z,00000200,00000000,0002.73,0002.17,0000.93,0000.89,0000.44,-000.03,0000.10,-000.23,0000.36,18.2,24.4,09.4,06.4,0675.1,31.0
2021-07-18T03:15:00Z,00000200,00000000,0002.63,0001.82,0000.75,0000.83,0000.34,0000.03,0000.38,0000.66,0000.09,18.2,24.4,09.4,06.4,0675.1,31.0
2021-07-18T03:16:00Z,00000200,00000000,0002.65,0002.00,0001.01,0001.11,0000.43,-000.02,0000.79,0000.66,0000.40,18.2,24.4,09.3,06.4,0675.0,31.0
2021-07-18T03:17:00Z,00000200,00000000,0002.92,0001.98,0000.93,0000.62,0000.39,0000.32,0000.29,0000.21,0000.49,18.1,24.4,09.4,06.4,0675.0,31.0
2021-07-18T03:18:00Z,00000200,00000000,0002.10,0001.58,0001.00,0000.68,0000.20,0000.01,0000.28,0000.38,0000.27,18.1,24.4,09.5,06.5,0675.0,31.0
2021-07-18T03:19:00Z,00000200,00000000,0002.59,0001.68,0001.02,0000.85,0000.55,0000.16,0000.60,0000.55,0000.28,18.1,24.4,09.4,06.4,0675.0,31.0
2021-07-18T03:20:00Z,00000200,00000000,0002.39,0001.75,0000.80,0000.84,0000.28,0000.36,0000.68,0000.55,0000.46,18.1,24.4,09.5,06.4,0675.0,31.0
2021-07-18T03:21:00Z,00000200,00000000,0002.15,0001.54,0000.62,0000.47,0000.20,0000.23,0000.47,0000.43,0000.34,18.2,24.4,09.4,06.4,0675.0,31.0
2021-07-18T03:22:00Z,00000200,00000000,0002.20,0001.58,0000.92,0000.74,0000.34,0000.34,0000.43,0000.44,0000.27,18.2,24.4,09.3,06.4,0675.0,31.0
2021-07-18T03:23:00Z,00000200,00000000,0002.67,0001.88,0001.02,0000.22,0000.20,0000.46,0000.33,0000.27,0000.05,18.3,24.5,09.3,06.4,0675.0,31.0
2021-07-18T03:24:00Z,00000200,00000000,0002.81,0001.69,0001.02,0000.29,0000.12,-000.01,0000.46,0000.36,0000.51,18.3,24.5,09.4,06.4,0675.0,31.0
2021-07-18T03:25:00Z,00000200,00000000,0001.86,0001.59,0000.81,0000.42,0000.36,0000.32,0000.31,0000.16,0000.13,18.3,24.5,09.3,06.3,0675.0,31.0
2021-07-18T03:26:00Z,00000200,00000000,0003.03,0001.40,0000.78,0001.16,0000.49,0000.20,-000.14,0000.36,0000.40,18.3,24.5,09.4,06.4,0675.0,31.0
2021-07-18T03:27:00Z,00000200,00000000,0001.91,0001.86,0000.52,0000.45,0000.28,-000.02,0000.77,0000.56,0000.11,18.3,24.5,09.3,06.3,0675.0,31.0
2021-07-18T03:28:00Z,00000200,00000000,0002.65,0001.61,0000.92,0000.31,-000.01,0000.28,0000.19,0000.05,0000.57,18.2,24.4,09.2,06.3,0675.0,31.0
2021-07-18T03:29:00Z,00000200,00000000,0002.95,0001.51,0000.61,0000.57,0000.35,0000.19,0000.52,0000.58,0000.05,18.2,24.4,09.3,06.4,0675.0,31.0
2021-07-18T03:30:00Z,00000200,00000000,0003.03,0001.21,0000.82,0001.31,0000.10,0000.08,0000.19,0000.01,0000.23,18.2,24.4,09.3,06.3,0675.0,31.0
2021-07-18T03:31:00Z,00000200,00000000,0002.40,0001.93,0000.87,0000.48,0000.15,-000.02,0000.23,0000.41,0000.40,18.1,24.4,09.3,06.3,0674.9,31.0
2021-07-18T03:32:00Z,00000200,00000000,0001.87,0001.56,0000.88,0000.60,0000.33,0000.34,0000.50,0000.64,-000.21,18.1,24.4,09.3,06.4,0675.0,31.0
2021-07-18T03:33:00Z,00000200,00000000,0002.05,0001.50,0001.04,0000.42,0000.29,0000.17,0000.38,-000.02,0000.74,18.1,24.4,09.3,06.3,0675.0,31.0
2021-07-18T03:34:00Z,00000200,00000000,0001.78,0001.57,0000.55,0000.95,0000.20,0000.12,0000.73,0000.64,0000.24,18.1,24.3,09.4,06.4,0675.0,30.9
2021-07-18T03:35:00Z,00000200,00000000,0001.91,0001.63,0000.95,0000.65,0000.21,-000.12,0000.30,0000.23,0000.34,18.1,24.3,09.4,06.4,0675.0,30.9
2021-07-18T03:36:00Z,00000200,00000000,0002.33,0001.09,0000.74,0000.61,0000.18,-000.08,0000.60,0000.46,0000.37,18.1,24.4,09.5,06.5,0674.9,31.0
2021-07-18T03:37:00Z,00000200,00000000,0002.07,0001.34,0000.83,0000.62,0000.35,0000.02,0000.32,0000.32,0000.23,18.2,24.4,09.4,06.5,0674.9,31.0
2021-07-18T03:38:00Z,00000200,00000000,0002.37,0001.25,0000.65,0000.65,0000.34,-000.01,0000.05,0000.18,0000.26,18.3,24.4,09.4,06.4,0674.9,31.0
2021-07-18T03:39:00Z,00000200,00000000,0001.66,0001.24,0000.57,0000.34,0000.14,-000.22,0000.37,0000.65,-000.05,18.3,24.5,09.3,06.4,0674.9,31.0
2021-07-18T03:40:00Z,00000200,00000000,0001.06,0001.21,0000.86,0000.35,0000.09,0000.15,0000.54,0000.32,0000.47,18.3,24.5,09.4,06.4,0674.8,31.0
2021-07-18T03:41:00Z,00000200,00000000,0001.65,0001.61,0000.69,0000.79,0000.21,0000.12,0000.07,0000.03,-000.05,18.3,24.5,09.4,06.4,0674.9,31.0
2021-07-18T03:42:00Z,00000200,00000000,0002.52,0001.43,0000.68,0001.02,0000.41,0000.19,0000.21,0000.08,0000.10,18.3,24.4,09.4,06.5,0674.8,31.0
2021-07-18T03:43:00Z,00000200,00000000,0001.74,0001.12,0000.69,0000.95,0000.28,0000.10,0000.14,0000.34,0000.13,18.2,24.4,09.5,06.5,0674.8,31.0
2021-07-18T03:44:00Z,00000200,00000000,0002.25,0001.11,0000.50,0000.77,0000.19,-000.15,0000.36,0000.46,0000.25,18.2,24.4,09.5,06.5,0674.9,31.0
2021-07-18T03:45:00Z,00000200,00000000,0001.71,0000.98,0000.54,0000.52,0000.19,0000.11,0000.21,-000.12,0000.53,18.2,24.4,09.5,06.5,0674.9,31.0
2021-07-18T03:46:00Z,00000200,00000000,0001.19,0001.58,0000.51,0001.04,0000.40,-000.17,0000.25,0000.31,0000.17,18.1,24.4,09.5,06.5,0674.9,31.0
2021-07-18T03:47:00Z,00000200,00000000,0002.12,0000.94,0000.80,0000.55,0000.08,0000.21,0000.43,0000.65,0000.12,18.1,24.3,09.5,06.5,0674.9,31.0
2021-07-18T03:48:00Z,00000200,00000000,0002.16,0001.19,0000.72,0000.48,0000.37,0000.49,0000.47,0000.14,0000.20,18.1,24.3,09.6,06.5,0674.9,31.0
2021-07-18T03:49:00Z,00000200,00000000,0002.67,0001.14,0000.88,0000.80,0000.24,-000.02,0000.50,0000.53,0000.64,18.1,24.3,09.6,06.6,0674.8,30.9
2021-07-18T03:50:00Z,00000200,00000000,0001.40,0001.26,0000.32,0000.48,-000.19,0000.06,0000.16,0000.13,-000.15,18.1,24.3,09.7,06.6,0674.8,30.9
2021-07-18T03:51:00Z,00000200,00000000,0001.20,0001.05,0000.79,0000.73,0000.44,0000.24,0000.48,0000.39,0000.55,18.1,24.3,09.6,06.6,0674.8,31.0
2021-07-18T03:52:00Z,00000200,00000000,0001.32,0001.31,0000.68,0000.48,0000.37,-000.02,0000.28,0000.40,0000.45,18.2,24.4,09.6,06.6,0674.8,31.0
2021-07-18T03:53:00Z,00000200,00000000,0001.47,0000.93,0000.47,0000.60,0000.27,0000.12,0000.24,0000.10,0000.13,18.3,24.4,09.6,06.6,0674.8,31.0
2021-07-18T03:54:00Z,00000200,00000000,0001.66,0001.00,0000.71,0001.14,0000.04,-000.04,0000.61,0000.56,0000.31,18.3,24.4,09.5,06.5,0674.8,31.0
2021-07-18T03:55:00Z,00000200,00000000,0002.36,0001.13,0000.64,0000.40,-000.03,0000.05,0000.23,0000.25,-000.08,18.3,24.4,09.6,06.6,0674.8,31.0
2021-07-18T03:56:00Z,00000200,00000000,0001.95,0001.39,0000.71,0000.79,0000.32,0000.50,0000.10,-000.03,0000.38,18.3,24.4,09.6,06.6,0674.8,31.0
2021-07-18T03:57:00Z,00000200,40000000,,,,,,,-000.25,0000.02,-000.33,18.3,24.4,09.2,06.3,0674.9,31.0
2021-07-18T03:58:00Z,00000200,60000000,,,,,,,0000.35,0000.24,0000.16,18.0,24.5,09.4,06.3,0673.8,31.0
2021-07-18T03:59:00Z,00000200,20000000,,,,,,,-000.01,-000.29,0000.12,18.0,24.6,09.4,06.3,0673.8,31.0
